DW1232 Weather Reports


time (UTC)temp
C
wind
direction
speed
KPH
gust
KPH
rain 1hr
cm
rain 24hr
cm
rain mn
cm
humidity
%
barometer
mb
20260906225422 32 215 6.4 16.1 0.00 0.00 0.00 47 1006.7
20260906223246 32 150 8.0 14.5 0.00 0.00 0.00 47 1006.8
20260906221117 32 135 3.2 14.5 0.00 0.00 0.00 48 1007.0
20260906220106 32 114 6.4 14.5 0.00 0.00 0.00 48 1007.1
20260906215045 33 236 3.2 12.9 0.00 0.00 0.00 46 1007.0
20260906212940 32 170 6.4 14.5 0.00 0.00 0.00 48 1007.4
20260906211913 32 145 6.4 14.5 0.00 0.00 0.00 48 1007.4
20260906210857 32 187 6.4 14.5 0.00 0.00 0.00 49 1007.5
20260906205835 31 182 8.0 14.5 0.00 0.00 0.00 50 1007.7
20260906204855 32 175 3.2 12.9 0.00 0.00 0.00 48 1008.0
20260906203838 32 208 6.4 12.9 0.00 0.00 0.00 48 1007.9
20260906202855 31 167 6.4 12.9 0.00 0.00 0.00 50 1008.0
20260906201849 31 184 4.8 11.3 0.00 0.00 0.00 50 1008.1
20260906195655 33 196 8.0 14.5 0.00 0.00 0.00 48 1008.0
20260906194623 33 146 6.4 19.3 0.00 0.00 0.00 48 1008.2
20260906193558 32 261 6.4 19.3 0.00 0.00 0.00 50 1008.3
20260906191514 31 129 1.6 12.9 0.00 0.00 0.00 50 1008.8
20260906190456 31 142 4.8 12.9 0.00 0.00 0.00 51 1008.8
20260906185457 31 151 3.2 11.3 0.00 0.00 0.00 50 1008.8
20260906184454 31 78 1.6 8.0 0.00 0.00 0.00 51 1008.9
20260906183422 31 99 3.2 9.7 0.00 0.00 0.00 51 1009.1
20260906182358 31 90 3.2 14.5 0.00 0.00 0.00 50 1009.2
20260906181329 32 176 6.4 14.5 0.00 0.00 0.00 49 1009.4
20260906180328 32 127 4.8 11.3 0.00 0.00 0.00 50 1009.6
20260906174206 31 161 8.0 17.7 0.00 0.00 0.00 52 1009.9
20260906173148 30 168 6.4 16.1 0.00 0.00 0.00 53 1010.0
20260906172141 31 140 8.0 16.1 0.00 0.00 0.00 53 1010.1
20260906171156 30 133 3.2 11.3 0.00 0.00 0.00 54 1010.2
20260906170159 30 125 3.2 11.3 0.00 0.00 0.00 53 1010.4
20260906165221 30 89 1.6 16.1 0.00 0.00 0.00 54 1010.5
20260906164223 31 89 4.8 16.1 0.00 0.00 0.00 51 1010.5
20260906162044 31 120 1.6 12.9 0.00 0.00 0.00 53 1010.6
20260906161027 31 44 1.6 12.9 0.00 0.00 0.00 55 1010.6
20260906155956 30 308 1.6 8.0 0.00 0.00 0.00 56 1010.5
20260906155016 30 304 1.6 12.9 0.00 0.00 0.00 59 1010.4
20260906154001 29 304 3.2 12.9 0.00 0.00 0.00 59 1010.3
20260906152958 28 290 1.6 8.0 0.00 0.00 0.00 61 1010.4
20260906152022 28 288 3.2 9.7 0.00 0.00 0.00 63 1010.3
20260906151042 28 301 3.2 9.7 0.00 0.00 0.00 64 1010.3
20260906144843 27 299 1.6 11.3 0.00 0.00 0.00 66 1010.3
20260906143818 27 235 1.6 8.0 0.00 0.00 0.00 66 1010.3
20260906141654 26 225 1.6 8.0 0.00 0.00 0.00 69 1010.3
20260906135515 25 176 0.0 0.0 0.00 0.00 0.00 73 1010.2
20260906134508 24 165 0.0 4.8 0.00 0.00 0.00 75 1010.2
20260906133516 23 159 0.0 0.0 0.00 0.00 0.00 80 1010.2
20260906132539 22 159 0.0 0.0 0.00 0.00 0.00 83 1010.1
20260906131550 21 159 0.0 0.0 0.00 0.00 0.00 86 1010.1
20260906130531 21 159 0.0 0.0 0.00 0.00 0.00 86 1010.1
20260906124429 20 159 0.0 0.0 0.00 0.00 0.00 87 1009.9
20260906123410 20 159 0.0 0.0 0.00 0.00 0.00 87 1009.7
20260906122349 20 159 0.0 0.0 0.00 0.00 0.00 87 1009.5
20260906121335 20 159 0.0 0.0 0.00 0.00 0.00 87 1009.5
20260906115206 20 159 0.0 0.0 0.00 0.00 0.00 86 1009.4
20260906114224 20 159 0.0 0.0 0.00 0.00 0.00 86 1009.4
20260906113216 20 159 0.0 0.0 0.00 0.00 0.00 86 1009.2
20260906112210 20 159 0.0 0.0 0.00 0.00 0.00 85 1009.1
20260906111150 20 159 0.0 0.0 0.00 0.00 0.00 85 1009.0
20260906110133 20 159 0.0 0.0 0.00 0.00 0.00 84 1008.9
20260906105102 20 159 0.0 0.0 0.00 0.00 0.00 84 1008.9
20260906102849 21 159 0.0 0.0 0.00 0.00 0.00 84 1008.9
20260906101815 21 159 0.0 0.0 0.00 0.00 0.00 83 1008.9
20260906100759 21 159 0.0 0.0 0.00 0.00 0.00 82 1008.7
20260906095755 21 159 0.0 0.0 0.00 0.00 0.00 82 1008.7
20260906094724 21 159 0.0 0.0 0.00 0.00 0.00 82 1008.8
20260906093726 21 159 0.0 0.0 0.00 0.00 0.00 82 1008.7
20260906092714 21 159 0.0 0.0 0.00 0.00 0.00 81 1008.7
20260906090545 22 159 0.0 0.0 0.00 0.00 0.00 80 1008.7
20260906085528 22 159 0.0 0.0 0.00 0.00 0.00 80 1008.6
20260906084532 22 159 0.0 0.0 0.00 0.00 0.00 80 1008.5
20260906082403 22 159 0.0 0.0 0.00 0.00 0.00 80 1008.2
20260906081425 22 159 0.0 0.0 0.00 0.00 0.00 79 1008.5
20260906080353 22 159 0.0 0.0 0.00 0.00 0.00 79 1008.6
20260906074241 22 159 0.0 0.0 0.00 0.00 0.00 78 1008.8
20260906073258 22 159 0.0 1.6 0.00 0.00 0.00 78 1008.9
20260906072245 22 159 0.0 0.0 0.00 0.00 0.00 77 1008.9
20260906071252 22 159 0.0 4.8 0.00 0.00 0.00 77 1009.1
20260906070234 23 159 0.0 0.0 0.00 0.00 0.00 75 1009.1
20260906065240 23 159 0.0 0.0 0.00 0.00 0.00 75 1009.2
20260906064239 23 159 0.0 8.0 0.00 0.00 0.00 75 1009.3
20260906062110 23 160 0.0 4.8 0.00 0.00 0.00 74 1009.3
20260906055923 24 158 1.6 8.0 0.00 0.00 0.00 72 1009.4
20260906054947 24 156 1.6 11.3 0.00 0.00 0.00 72 1009.5
20260906053935 25 156 4.8 11.3 0.00 0.00 0.00 72 1009.6
20260906052909 25 158 4.8 9.7 0.00 0.00 0.00 71 1009.5
20260906051924 25 142 4.8 9.7 0.00 0.00 0.00 71 1009.6
20260906044629 25 143 6.4 11.3 0.00 0.00 0.00 68 1009.5
20260906043653 25 147 6.4 9.7 0.00 0.00 0.00 67 1009.6
20260906042634 25 149 4.8 11.3 0.00 0.00 0.00 66 1009.5
20260906041621 25 146 4.8 11.3 0.00 0.00 0.00 64 1009.3
20260906040640 25 146 3.2 9.7 0.00 0.00 0.00 62 1009.3
20260906035633 25 146 4.8 16.1 0.00 0.00 0.00 61 1009.3
20260906034611 25 147 6.4 16.1 0.00 0.00 0.00 61 1009.1
20260906033611 24 135 0.0 6.4 0.00 0.00 0.00 64 1009.2
20260906032622 24 135 0.0 0.0 0.00 0.00 0.00 63 1008.9
20260906031636 25 135 0.0 0.0 0.00 0.00 0.00 61 1008.8
20260906030648 25 135 0.0 0.0 0.00 0.00 0.00 60 1008.8
20260906025618 25 135 0.0 0.0 0.00 0.00 0.00 59 1008.6
20260906024545 25 135 0.0 0.0 0.00 0.00 0.00 59 1008.5
20260906023520 25 135 0.0 0.0 0.00 0.00 0.00 58 1008.3
20260906022446 26 135 0.0 0.0 0.00 0.00 0.00 58 1008.2
20260906021457 26 135 0.0 0.0 0.00 0.00 0.00 58 1008.1
20260906020505 26 135 0.0 0.0 0.00 0.00 0.00 56 1007.9
20260906015453 27 135 0.0 0.0 0.00 0.00 0.00 55 1007.7
20260906014429 27 135 0.0 0.0 0.00 0.00 0.00 53 1007.7
20260906013446 28 135 0.0 4.8 0.00 0.00 0.00 51 1007.6
20260906012451 28 135 1.6 0.0 0.00 0.00 0.00 50 1007.4
20260906010323 30 135 1.6 9.7 0.00 0.00 0.00 48 1007.2
20260906005308 30 135 4.8 9.7 0.00 0.00 0.00 48 1007.1
20260906004245 30 140 4.8 14.5 0.00 0.00 0.00 47 1007.1
20260906003257 31 136 6.4 14.5 0.00 0.00 0.00 46 1007.1
20260906002312 31 152 6.4 14.5 0.00 0.00 0.00 45 1007.1
20260905235028 32 105 4.8 12.9 0.00 0.00 0.00 43 1007.0
20260905234010 32 125 4.8 19.3 0.00 0.00 0.00 43 1006.9
20260905232945 32 144 6.4 19.3 0.00 0.00 0.00 43 1006.8
20260905231942 32 116 8.0 16.1 0.00 0.00 0.00 42 1006.8